Location: Berduj
(43.0019°N, 22.3781°E)
Time: 22:58:55
(UTC+00:00)

Envisat - Visible Passes

Search period start: 06 December 2019 00:00
Search period end: 16 December 2019 00:00
Orbit: 764 x 766 km, 98.1° (Epoch: 06 December)

Date Brightness Start Highest point End Pass type
(mag) Time Alt. Az. Time Alt. Az. Time Alt. Az.
06 Dec 6.3 03:53:47 10° ENE 03:55:25 11° E 03:57:02 10° ESE visible
06 Dec 3.5 16:45:24 10° S 16:50:25 60° W 16:55:27 10° NNW visible
07 Dec 4.4 04:53:23 10° NNE 04:58:16 44° E 05:03:05 10° S visible
07 Dec 2.9 16:08:39 10° SSE 16:13:39 63° ENE 16:18:41 10° N visible
07 Dec 5.8 17:50:04 10° SW 17:53:06 16° W 17:56:10 10° NW visible
08 Dec 5.8 04:17:28 10° NE 04:21:13 20° E 04:24:58 10° SE visible
08 Dec 3.7 15:32:43 10° SE 15:37:05 30° ENE 15:41:28 10° N visible
08 Dec 4.6 17:11:25 10° SSW 17:16:01 34° W 17:20:38 10° NNW visible
09 Dec 3.1 16:34:03 10° S 16:39:07 76° WSW 16:44:14 10° NNW visible
10 Dec 4.8 04:42:16 10° NNE 04:46:55 35° E 04:51:32 10° SSE visible
10 Dec 3.1 15:57:32 10° SE 16:02:25 50° ENE 16:07:19 10° N visible
10 Dec 5.5 17:38:02 10° SW 17:41:43 20° W 17:45:25 10° NW visible
11 Dec 6.0 04:06:41 10° NE 04:09:50 16° E 04:12:56 10° SE visible
11 Dec 4.0 15:21:52 10° ESE 15:25:55 24° ENE 15:29:57 10° NNE visible
11 Dec 4.2 16:59:52 10° S 17:04:40 43° W 17:09:31 10° NNW visible
12 Dec 3.7 05:07:28 10° NNE 05:12:31 61° E 05:17:31 10° S visible
12 Dec 2.9 16:22:45 10° SSE 16:27:50 86° ENE 16:32:57 10° NNW visible
12 Dec 6.2 18:06:03 10° WSW 18:07:30 11° W 18:08:59 10° WNW visible
13 Dec 5.2 04:31:13 10° NE 04:35:34 28° E 04:39:53 10° SSE visible
13 Dec 3.4 15:46:29 10° SE 15:51:11 40° ENE 15:55:56 10° N visible
13 Dec 5.2 17:26:11 10° SSW 17:30:20 25° W 17:34:30 10° NW visible
14 Dec 6.2 03:56:13 10° ENE 03:58:24 13° E 04:00:35 10° ESE visible
14 Dec 3.7 16:48:23 10° S 16:53:21 55° W 16:58:21 10° NNW visible
15 Dec 4.1 04:56:16 10° NNE 05:01:12 48° E 05:06:06 10° S visible
15 Dec 2.9 16:11:32 10° SSE 16:16:34 69° ENE 16:21:38 10° N visible
15 Dec 5.9 17:53:22 10° WSW 17:56:05 14° W 17:58:50 10° WNW visible
